Location: Corralito
(10.2667°N, 66.9500°W)
Time: 17:54:52
(UTC+00:00)

Cosmos 1331 Rocket - Pass Details

Date: 23 March 2023
Orbit: 748 x 777 km, 74.0° (Epoch: 08 June)

Event Time Altitude Azimuth Distance (km) Brightness Sun altitude
Rises 23:20:12 0° 181° (S) 3,193 7.2 -11.1°
Reaches altitude 10° 23:22:39 10° 175° (S) 2,266 6.4 -11.7°
Maximum altitude 23:27:33 47° 102° (ESE) 983 4.1 -12.9°
Drops below altitude 10° 23:32:27 10° 28° (NNE) 2,258 6.2 -14.1°
Sets 23:34:52 0° 23° (NNE) 3,181 7.0 -14.7°
